TimeCST,TemperatureF,Dew PointF,Humidity,Sea Level PressureIn,VisibilityMPH,Wind Direction,Wind SpeedMPH,Gust SpeedMPH,PrecipitationIn,Events,Conditions,WindDirDegrees,DateUTC
12:15 AM,29.1,9.9,45,29.74,10.0,South,12.7,20.7,N/A,,Clear,170,2014-01-30 06:15:00
12:35 AM,29.1,9.9,45,29.73,10.0,South,16.1,19.6,N/A,,Clear,170,2014-01-30 06:35:00
12:55 AM,28.9,10.0,45,29.73,10.0,South,11.5,18.4,N/A,,Clear,170,2014-01-30 06:55:00
1:15 AM,28.9,10.2,46,29.72,10.0,SSE,6.9,-,N/A,,Clear,150,2014-01-30 07:15:00
1:35 AM,29.3,10.4,45,29.71,10.0,SSE,8.1,-,N/A,,Clear,160,2014-01-30 07:35:00
1:55 AM,29.5,10.4,45,29.71,10.0,SSE,8.1,16.1,N/A,,Clear,160,2014-01-30 07:55:00
2:15 AM,30.2,10.6,44,29.69,10.0,South,12.7,20.7,N/A,,Clear,180,2014-01-30 08:15:00
2:35 AM,30.0,10.8,45,29.68,10.0,South,9.2,20.7,N/A,,Clear,170,2014-01-30 08:35:00
2:55 AM,30.2,10.6,44,29.67,10.0,South,13.8,20.7,N/A,,Clear,180,2014-01-30 08:55:00
3:15 AM,30.2,10.9,45,29.66,10.0,South,17.3,26.5,N/A,,Clear,190,2014-01-30 09:15:00
3:35 AM,30.2,10.9,45,29.64,10.0,South,13.8,23.0,N/A,,Clear,180,2014-01-30 09:35:00
3:55 AM,30.2,11.3,45,29.64,10.0,South,11.5,21.9,N/A,,Mostly Cloudy,180,2014-01-30 09:55:00
4:15 AM,30.2,11.3,45,29.63,10.0,South,15.0,21.9,N/A,,Overcast,170,2014-01-30 10:15:00
4:35 AM,30.2,11.3,45,29.63,10.0,South,10.4,18.4,N/A,,Overcast,170,2014-01-30 10:35:00
4:55 AM,30.2,11.5,46,29.62,10.0,SE,5.8,16.1,N/A,,Overcast,130,2014-01-30 10:55:00
5:15 AM,30.2,11.5,46,29.61,10.0,SSE,8.1,-,N/A,,Overcast,150,2014-01-30 11:15:00
5:35 AM,30.2,12.0,47,29.60,10.0,SSE,6.9,-,N/A,,Overcast,150,2014-01-30 11:35:00
5:55 AM,29.8,12.2,48,29.59,10.0,SSE,8.1,-,N/A,,Scattered Clouds,150,2014-01-30 11:55:00
6:15 AM,29.7,12.6,49,29.58,10.0,ESE,8.1,-,N/A,,Scattered Clouds,110,2014-01-30 12:15:00
6:35 AM,30.2,12.0,47,29.59,10.0,South,10.4,17.3,N/A,,Overcast,180,2014-01-30 12:35:00
6:55 AM,30.2,12.4,48,29.57,10.0,SSE,8.1,18.4,N/A,,Overcast,160,2014-01-30 12:55:00
7:15 AM,30.2,12.2,47,29.56,10.0,SE,9.2,18.4,N/A,,Overcast,140,2014-01-30 13:15:00
7:35 AM,30.0,12.7,49,29.53,10.0,SE,10.4,18.4,N/A,,Overcast,130,2014-01-30 13:35:00
7:55 AM,30.2,12.7,48,29.52,10.0,SE,10.4,20.7,N/A,,Overcast,140,2014-01-30 13:55:00
8:15 AM,30.7,12.6,47,29.55,10.0,South,13.8,25.3,N/A,,Overcast,180,2014-01-30 14:15:00
8:35 AM,31.1,12.2,46,29.54,10.0,South,15.0,24.2,N/A,,Overcast,170,2014-01-30 14:35:00
8:55 AM,31.1,12.4,46,29.54,10.0,South,16.1,25.3,N/A,,Overcast,180,2014-01-30 14:55:00
9:15 AM,31.3,12.4,46,29.54,10.0,South,18.4,25.3,N/A,,Overcast,170,2014-01-30 15:15:00
9:35 AM,31.5,12.7,46,29.55,10.0,South,11.5,23.0,N/A,,Overcast,170,2014-01-30 15:35:00
9:55 AM,31.5,12.9,46,29.55,10.0,South,15.0,21.9,N/A,,Overcast,180,2014-01-30 15:55:00
10:15 AM,30.6,15.8,54,29.57,3.0,South,11.5,23.0,N/A,Snow,Light Snow,190,2014-01-30 16:15:00
10:35 AM,27.5,23.7,86,29.58,0.2,SSW,13.8,24.2,N/A,Snow,Heavy Snow,200,2014-01-30 16:35:00
10:55 AM,27.5,25.0,90,29.56,1.0,South,6.9,-,N/A,Snow,Light Snow,180,2014-01-30 16:55:00
11:15 AM,28.4,25.0,87,29.55,2.0,South,6.9,-,N/A,,Overcast,180,2014-01-30 17:15:00
11:35 AM,29.3,25.5,86,29.55,3.0,SSW,8.1,-,N/A,,Overcast,200,2014-01-30 17:35:00
11:55 AM,30.2,25.7,83,29.53,2.0,SSW,9.2,16.1,N/A,,Overcast,210,2014-01-30 17:55:00
12:15 PM,30.7,26.1,83,29.52,3.0,SSW,9.2,16.1,N/A,Rain,Freezing Rain,200,2014-01-30 18:15:00
12:35 PM,31.1,25.3,79,29.52,4.0,SSW,13.8,21.9,N/A,,Overcast,200,2014-01-30 18:35:00
12:55 PM,30.9,25.7,81,29.52,2.0,SSW,10.4,18.4,N/A,,Overcast,210,2014-01-30 18:55:00
1:15 PM,31.1,26.2,82,29.52,3.0,SW,10.4,17.3,N/A,,Overcast,220,2014-01-30 19:15:00
1:35 PM,31.8,25.7,78,29.52,10.0,SW,13.8,18.4,N/A,,Overcast,220,2014-01-30 19:35:00
1:55 PM,32.0,25.7,78,29.53,10.0,WSW,12.7,-,N/A,,Overcast,240,2014-01-30 19:55:00
2:15 PM,32.2,25.7,77,29.54,10.0,SW,12.7,-,N/A,,Overcast,230,2014-01-30 20:15:00
2:35 PM,32.0,26.1,79,29.55,10.0,SW,10.4,17.3,N/A,,Overcast,230,2014-01-30 20:35:00
2:55 PM,32.4,26.2,78,29.57,10.0,WSW,6.9,-,N/A,,Overcast,240,2014-01-30 20:55:00
3:15 PM,32.5,25.5,75,29.58,10.0,West,18.4,-,N/A,,Overcast,270,2014-01-30 21:15:00
3:35 PM,30.2,23.0,75,29.61,7.0,WNW,21.9,31.1,N/A,,Overcast,290,2014-01-30 21:35:00
3:55 PM,28.2,20.8,74,29.64,7.0,WNW,21.9,26.5,N/A,,Scattered Clouds,300,2014-01-30 21:55:00
4:15 PM,27.0,19.8,74,29.67,7.0,WNW,21.9,27.6,N/A,,Scattered Clouds,300,2014-01-30 22:15:00
4:35 PM,25.0,17.8,74,29.70,7.0,NW,13.8,25.3,N/A,,Scattered Clouds,310,2014-01-30 22:35:00
4:55 PM,23.5,16.7,75,29.73,10.0,WNW,12.7,26.5,N/A,,Scattered Clouds,290,2014-01-30 22:55:00
5:15 PM,22.1,14.5,73,29.75,10.0,WNW,15.0,24.2,N/A,,Scattered Clouds,290,2014-01-30 23:15:00
5:35 PM,21.6,13.5,71,29.77,10.0,WNW,12.7,23.0,N/A,,Scattered Clouds,300,2014-01-30 23:35:00
5:55 PM,21.2,12.9,70,29.77,10.0,WNW,15.0,-,N/A,,Clear,300,2014-01-30 23:55:00
6:15 PM,20.3,12.2,71,29.79,10.0,WNW,9.2,-,N/A,,Clear,300,2014-01-31 00:15:00
6:35 PM,19.4,11.7,72,29.81,10.0,NW,8.1,16.1,N/A,,Clear,310,2014-01-31 00:35:00
6:55 PM,18.9,10.9,71,29.81,10.0,NW,9.2,-,N/A,,Clear,310,2014-01-31 00:55:00
7:15 PM,18.5,9.7,68,29.83,10.0,NW,9.2,-,N/A,,Clear,310,2014-01-31 01:15:00
7:35 PM,17.8,9.1,69,29.85,10.0,WNW,8.1,-,N/A,,Clear,300,2014-01-31 01:35:00
7:55 PM,16.7,8.6,70,29.86,10.0,Calm,Calm,-,N/A,,Clear,0,2014-01-31 01:55:00
8:15 PM,16.0,8.2,72,29.89,10.0,West,4.6,-,N/A,,Clear,260,2014-01-31 02:15:00
8:35 PM,15.6,7.7,71,29.90,10.0,West,5.8,-,N/A,,Clear,270,2014-01-31 02:35:00
8:55 PM,14.9,7.0,71,29.92,10.0,West,5.8,-,N/A,,Clear,260,2014-01-31 02:55:00
9:15 PM,14.5,5.5,68,29.93,10.0,West,6.9,-,N/A,,Clear,260,2014-01-31 03:15:00
9:35 PM,14.7,5.0,65,29.96,10.0,West,9.2,-,N/A,,Clear,260,2014-01-31 03:35:00
9:55 PM,12.4,4.1,69,29.97,10.0,WSW,11.5,16.1,N/A,,Clear,250,2014-01-31 03:55:00
10:15 PM,10.9,3.4,72,29.98,10.0,West,10.4,-,N/A,,Clear,280,2014-01-31 04:15:00
10:35 PM,10.2,2.3,70,29.99,10.0,West,10.4,-,N/A,,Clear,270,2014-01-31 04:35:00
10:55 PM,9.0,1.0,70,30.00,10.0,West,13.8,-,N/A,,Clear,280,2014-01-31 04:55:00
11:15 PM,8.1,-0.0,70,30.01,10.0,West,11.5,-,N/A,,Clear,270,2014-01-31 05:15:00
11:35 PM,7.5,-0.6,70,30.02,10.0,West,10.4,-,N/A,,Clear,270,2014-01-31 05:35:00
11:55 PM,6.6,-1.3,70,30.02,10.0,West,8.1,-,N/A,,Clear,280,2014-01-31 05:55:00